Hourly Data Report for July 23, 2021

FLIN FLON
MANITOBA
Current Station Operator: ECCC - MSC

54°41'00.000" N
101°41'00.000" W
303.90 m
5050919
71954
WFO

Download Data

Hourly Data (July 2021)
Hourly Data Report for July 23, 2021
TIME
LST
Temp Definition
°C
Dew Point Definition
°C
Rel Hum Definition
%
Precip. Amount Definition
mm

Wind Dir Definition
10's deg

Wind Spd Definition
km/h
Visibility Definition
km
Stn Press Definition
kPa
Hmdx Definition


Wind Chill Definition


Weather Definition


00:00 23.9 20.0 79 0.0 22 21   96.58 31   LegendNANA
01:00 19.4 13.2 67 0.0 30 14   96.83     LegendNANA
02:00 17.6 13.4 77 0.0 28 15   96.95     LegendNANA
03:00 16.5 13.3 81 0.0 28 16   97.01     LegendNANA
04:00 15.4 12.0 80 0.0 27 14   97.05     LegendNANA
05:00 14.9 11.2 78 0.0 26 15   97.07     LegendNANA
06:00 14.7 10.1 74 0.0 26 16   97.06     LegendNANA
07:00 16.0 10.0 68 0.0 24 18   97.01     LegendNANA
08:00 17.1 9.4 60 0.0 25 21   97.00     LegendNANA
09:00 18.7 8.3 51 0.0 23 25   96.96     LegendNANA
10:00 21.1 7.4 41 0.0 22 29   96.85     LegendNANA
11:00 22.0 6.8 37 0.0 24 29   96.77     LegendNANA
12:00 23.3 7.8 37 0.0 24 36   96.69     LegendNANA
13:00 22.9 7.5 37 0.0 24 32   96.63     LegendNANA
14:00 21.6 8.3 42 0.0 26 22   96.64     LegendNANA
15:00 21.3 8.6 44 0.0 27 24   96.68     LegendNANA
16:00 21.2 9.4 47 0.0 27 20   96.68     LegendNANA
17:00 21.8 9.3 45 0.0 27 30   96.63     LegendNANA
18:00 21.4 10.1 49 0.0 28 21   96.65     LegendNANA
19:00 20.9 10.6 52 0.0 29 22   96.70     LegendNANA
20:00 19.5 10.3 55 0.0 30 21   96.78     LegendNANA
21:00 18.4 9.5 56 0.0 31 16   96.87     LegendNANA
22:00 17.0 9.9 63 0.0 30 9   96.92     LegendNANA
23:00 16.8 10.6 67 0.0 28 13   96.94     LegendNANA

Notes on Data Quality.

Legend

  • E = Estimated
  • M = Missing
  • NA = Not Available*
  • [empty] = Indicates an unobserved value
Date modified: